Lid_Strength_Index
3 3 3 2 3 2 2 2 2 2 3 3 3 3 2 3 2 4 8 7 5 -0 -1 1 2 3 3 5 4 5 12 14 13 12 11 7 9 6 5 6 5 5 5 4 2
3 3 3 3 3 2 2 2 3 3 3 3 3 3 3 2 5 7 3 1 0 -2 2 3 5 5 6 7 6 9 12 12 9 9 9 8 8 7 7 7 7 6 4 3 3
3 3 3 3 3 3 3 3 3 3 3 3 3 3 2 3 7 6 0 -1 -2 0 2 4 4 6 8 7 7 9 12 9 8 7 7 8 8 6 8 9 7 8 6 4 4
3 3 3 3 3 3 3 3 3 3 3 3 3 2 2 6 13 2 -2 -2 -2 3 6 5 5 8 9 10 7 11 8 7 7 7 7 8 7 8 7 7 5 5 4 4 4
3 3 3 3 3 3 3 3 3 4 3 3 2 2 6 10 10 1 -2 -2 0 5 7 7 6 9 10 8 7 9 8 7 6 7 7 7 8 8 7 5 4 4 4 5 4
4 4 4 4 4 3 3 4 4 4 4 3 2 2 9 13 5 -0 0 1 3 6 7 6 6 6 7 8 9 7 7 7 6 7 7 8 8 7 7 5 5 5 5 5 4
4 4 4 4 4 3 4 4 4 4 4 3 2 3 7 11 2 0 1 2 4 5 7 7 4 6 6 9 6 7 9 8 8 8 8 7 10 10 6 5 6 6 5 5 4
4 4 3 3 3 3 4 4 4 3 3 3 1 5 8 3 1 1 2 3 3 5 6 6 5 7 8 6 9 12 13 14 10 9 8 9 13 9 6 7 7 6 5 5 4
4 4 3 3 3 3 4 4 3 2 2 1 6 7 8 0 3 2 2 3 4 4 5 4 8 9 10 11 13 13 15 14 12 8 9 10 12 9 6 7 7 6 6 5 5
3 3 3 3 3 4 5 4 3 1 1 1 2 9 8 7 7 3 2 2 4 5 6 8 11 12 12 13 17 14 15 15 14 11 10 12 12 9 7 7 7 7 6 6 5
3 3 3 3 3 4 6 9 11 11 6 10 10 8 8 6 6 8 3 4 5 7 10 9 11 13 13 12 11 12 13 14 13 9 11 11 11 10 8 8 8 7 7 6 5
2 3 2 2 3 4 6 10 10 9 11 7 6 6 6 7 9 8 4 7 7 10 9 10 13 10 10 10 11 11 13 14 12 10 12 11 12 10 9 8 8 7 7 6 5
2 2 2 2 3 5 9 8 7 8 12 10 8 8 9 8 9 10 7 7 8 9 10 11 10 9 10 10 11 13 13 13 13 11 10 13 14 12 9 8 7 6 6 5 5
2 1 2 3 7 8 7 6 6 7 15 12 11 9 9 10 13 9 7 7 9 10 9 10 8 9 11 11 10 16 10 9 11 13 16 12 18 14 11 10 9 8 7 6 5
1 2 3 4 8 8 6 6 7 9 19 10 11 8 11 12 11 11 9 10 11 10 9 11 10 10 11 11 10 11 9 10 11 14 17 14 16 13 12 13 11 8 7 6 5
1 2 3 6 8 6 6 7 8 14 17 12 11 12 12 12 12 10 10 10 11 12 12 11 10 10 9 7 8 8 10 13 15 16 18 16 15 15 15 12 10 8 7 6 5
2 3 4 5 9 7 7 8 14 17 11 12 13 13 13 13 12 12 12 14 16 18 17 14 13 11 10 12 11 11 14 17 19 19 18 17 15 14 11 10 8 9 7 6 5
3 4 4 4 6 6 8 10 16 12 12 11 12 12 13 12 12 12 14 15 13 16 18 17 17 13 11 13 13 13 13 17 19 20 18 15 16 13 9 8 8 7 7 6 6
4 6 6 5 4 7 9 14 15 12 10 11 12 13 13 12 13 13 15 15 14 15 18 18 17 12 11 12 12 13 15 14 16 18 17 16 13 10 8 10 10 9 7 7 6
6 7 7 5 6 7 10 13 12 9 9 10 13 13 14 13 13 14 15 13 13 12 15 16 17 14 12 11 12 13 13 15 16 19 19 17 15 15 11 11 12 11 8 7 6
6 9 6 7 7 9 14 13 10 9 9 11 11 12 13 14 13 14 14 11 10 11 13 16 16 16 14 15 16 15 16 17 16 17 18 18 16 11 11 10 12 8 8 7 6
7 10 5 6 10 13 14 12 9 10 10 10 10 12 13 13 14 13 13 12 9 10 13 13 15 16 17 13 12 13 16 17 17 17 18 17 15 12 12 12 12 9 7 6 6
8 9 6 7 13 14 11 10 9 10 11 11 11 11 12 14 15 13 11 9 9 8 11 12 16 18 18 16 14 15 14 17 18 20 20 18 17 11 11 11 10 10 10 10 7
9 11 9 9 11 12 13 11 11 7 9 9 11 11 13 13 13 14 12 10 9 8 6 10 16 17 18 17 16 16 14 14 17 19 19 18 16 14 13 12 9 9 11 11 11
9 11 11 13 12 12 11 11 11 11 9 9 10 11 13 15 14 14 12 12 10 8 10 13 16 16 15 13 14 14 14 14 16 16 18 17 15 14 13 12 10 9 11 11 13
8 9 10 12 11 11 11 11 11 10 10 10 11 10 11 14 14 15 13 14 14 11 13 13 15 14 15 13 13 14 13 13 13 14 15 15 15 12 11 10 10 10 10 10 11
7 7 9 10 11 12 12 11 10 10 9 8 9 11 11 11 10 11 11 12 14 14 14 14 15 17 19 14 14 16 14 13 13 13 13 16 13 11 12 11 11 11 10 11 11